Weather in Sligo

Ireland     54°16′38″N   8°28′03″W
temp.,
°C
wind,
m/s
gust,
m/s
humid.,
%
clouds,
%
prec.,
mm/h
press.,
hPa
HPBL,
m
12 august, fri
fri1201:00+14ene11830 0.0 102312
04:00+13se00830 0.0 102211
07:00+13se11814 0.0 102218
10:00+19se116842 0.0 1021244
13:00+23wnw12586 0.0 1020778
16:00+23nw22601 0.0 1019596
19:00+21nnw23711 0.0 1019158
22:00+17nw11833 0.0 101911
13 august, sat
sat1301:00+16ese01851 0.0 101811
04:00+16se11870 0.0 101811
07:00+16e11860 0.0 101711
10:00+21nnw11680 0.0 1017254
13:00+23nw22570 0.0 1016689
16:00+21nw336914 0.0 1015356
19:00+19wnw338098 0.0 1014140
22:00+16wnw2290100 0.0 101439
14 august, sun
sun1401:00+15wnw2291100 0.0 101338
04:00+14wnw22947 0.0 101230
07:00+15wnw2295100 0.0 101246
10:00+18nw338339 0.0 1011335
13:00+19nw2277100 0.0 1010411
16:00+18nw4479100 0.1 1009334
19:00+17nw3482100 0.1 1008292
22:00+14nnw3493100 0.1 1008170
15 august, mon
mon1501:00+14nnw2296100 2.4 1007112
04:00+13n339676 0.4 1006129
07:00+14n4694100 0.4 1007395
10:00+14n4691100 0.1 1007512
13:00+16nnw6783100 0.3 1007704
16:00+14nnw5992100 1.8 1008571
19:00+14nnw61092100 3.2 1009606
22:00+14n7119269 0.7 1010678
16 august, tue
tue1601:00+14n7119294 0.8 1010721
04:00+13n61189100 0.1 1010744
07:00+13n71187100 0.1 1011909
10:00+14n7108699 0.1 1012862
13:00+14nnw81084100 0.3 1014953
16:00+15nnw8107398 0.1 10141110
19:00+14nnw7107493 0.2 10151126
22:00+13n7970100 0.1 10161104